New Paris, IN

5:07 AM EDT on August 30, 2016 (GMT -0400)
Goshen Municipal

Weather History for KGSH - February, 2013

Change the Weather History Date:

Monday, February 25, 2013

  Actual Average Record
Temperature  
Mean Temperature 29 °F -  
Max Temperature 41 °F 38 °F 64 °F (1957)
Min Temperature 17 °F 21 °F -13 °F (1950)
Degree Days  
Heating Degree Days 36    
Moisture  
Dew Point 22 °F    
Average Humidity 75    
Maximum Humidity 93    
Minimum Humidity 57    
Precipitation  
Precipitation 0.00 in - - ()
Sea Level Pressure  
Sea Level Pressure 30.15 in    
Wind  
Wind Speed 3 mph (East)    
Max Wind Speed 13 mph    
Max Gust Speed -    
Visibility 7 miles    
Events      
Averages and records for this station are not official NWS values.
T = Trace of Precipitation, MM = Missing Value Source: NWS Daily Summary

Daily Weather History Graph

Daily Weather History Graph

Search for Another Location

Airport or City:

Trip Planner

Search our weather history database for the weather conditions in past years. The results will help you decide how hot, cold, wet, or windy it might be!

Date:

Astronomy

Feb. 25, 2013 Rise Set
Actual Time 7:23 AM EST 6:29 PM EST
Civil Twilight 6:55 AM EST 6:57 PM EST
Nautical Twilight 6:23 AM EST 7:29 PM EST
Astronomical Twilight 5:51 AM EST 8:01 PM EST
Moon 6:42 PM EST (2/25) 6:53 AM EST (2/25)
Length of Visible Light 12h 01m
Length of Day
11h 05m
Full, 100% of the Moon is Illuminated
Feb 25
Full
Feb 25
Full
Mar 4
Last Quarter
Mar 11
New
Mar 19
First Quarter

Hourly Weather History & Observations

Time (EST) Temp. Windchill Dew Point Humidity Pressure Visibility Wind Dir Wind Speed Gust Speed Precip Events Conditions
12:53 AM 21.9 °F - 18.0 °F 85% 30.18 in 5.0 mi Calm Calm - N/A   Clear
1:53 AM 21.0 °F - 18.0 °F 88% 30.18 in 4.0 mi Calm Calm - N/A   Clear
2:53 AM 19.9 °F - 16.0 °F 85% 30.17 in 4.0 mi Calm Calm - N/A   Clear
3:53 AM 19.9 °F - 15.1 °F 81% 30.17 in 4.0 mi Calm Calm - N/A   Haze
4:53 AM 19.0 °F - 15.1 °F 85% 30.17 in 4.0 mi Calm Calm - N/A   Clear
5:53 AM 19.0 °F - 16.0 °F 88% 30.20 in 4.0 mi Calm Calm - N/A   Clear
6:31 AM 17.6 °F - 15.8 °F 93% 30.16 in 2.0 mi Calm Calm - N/A   Clear
6:53 AM 19.0 °F - 15.1 °F 85% 30.21 in 3.0 mi Calm Calm - N/A   Clear
7:29 AM 19.4 °F - 15.8 °F 86% 30.17 in 2.5 mi Calm Calm - N/A   Haze
7:44 AM 21.2 °F - 17.6 °F 86% 30.18 in 3.0 mi Calm Calm - N/A   Clear
7:53 AM 21.9 °F - 19.0 °F 89% 30.22 in 3.0 mi Calm Calm - N/A   Clear
8:53 AM 28.0 °F 21.7 °F 21.9 °F 78% 30.21 in 5.0 mi ESE 5.8 mph - N/A   Haze
9:53 AM 32.0 °F 24.8 °F 24.1 °F 73% 30.20 in 7.0 mi SE 8.1 mph - N/A   Clear
10:53 AM 35.1 °F 28.6 °F 24.1 °F 64% 30.21 in 10.0 mi SE 8.1 mph - N/A   Clear
11:53 AM 37.9 °F 31.5 °F 25.0 °F 60% 30.19 in 10.0 mi ESE 9.2 mph - N/A   Clear
12:53 PM 39.0 °F 33.4 °F 26.1 °F 60% 30.16 in 10.0 mi East 8.1 mph - N/A   Clear
1:53 PM 39.9 °F 34.5 °F 26.1 °F 58% 30.15 in 10.0 mi East 8.1 mph - N/A   Clear
2:53 PM 39.9 °F 35.1 °F 27.0 °F 60% 30.13 in 10.0 mi ENE 6.9 mph - N/A   Clear
3:53 PM 41.0 °F 35.8 °F 27.0 °F 57% 30.11 in 10.0 mi East 8.1 mph - N/A   Clear
4:53 PM 41.0 °F 35.2 °F 28.0 °F 60% 30.11 in 10.0 mi East 9.2 mph - N/A   Clear
5:53 PM 37.9 °F 32.1 °F 26.1 °F 62% 30.10 in 10.0 mi ENE 8.1 mph - N/A   Clear
6:53 PM 35.1 °F 28.6 °F 27.0 °F 72% 30.10 in 10.0 mi East 8.1 mph - N/A   Clear
7:53 PM 35.1 °F 28.6 °F 26.1 °F 70% 30.08 in 10.0 mi ENE 8.1 mph - N/A   Clear
8:53 PM 34.0 °F 26.6 °F 26.1 °F 73% 30.04 in 10.0 mi ENE 9.2 mph - N/A   Clear
9:53 PM 33.1 °F 26.1 °F 26.1 °F 75% 30.06 in 10.0 mi East 8.1 mph - N/A   Clear
10:53 PM 32.0 °F 24.2 °F 25.0 °F 75% 30.08 in 9.0 mi East 9.2 mph - N/A   Clear
11:53 PM 30.9 °F 21.2 °F 24.1 °F 76% 30.03 in 10.0 mi East 12.7 mph - N/A   Clear